Time,TemperatureF,DewpointF,PressureIn,WindDirection,WindDirectionDegrees,WindSpeedMPH,WindSpeedGustMPH,Humidity,HourlyPrecipIn,Conditions,Clouds,dailyrainin,SoftwareType,DateUTC
2013-01-06 00:00:00,42.1,26.2,29.09,SW,225,2.7,4.9,53,0.00,,---,0.00,VWS V13.01,2013-01-06 05:00:00,
2013-01-06 00:03:00,42.1,26.2,29.09,West,260,0.0,2.7,53,0.00,,---,0.00,VWS V13.01,2013-01-06 05:03:00,
2013-01-06 00:05:00,42.1,26.2,29.09,WNW,300,0.0,3.1,53,0.00,,---,0.00,VWS V13.01,2013-01-06 05:05:00,
2013-01-06 00:10:00,41.9,26.9,29.09,NW,316,0.0,3.1,55,0.00,,---,0.00,VWS V13.01,2013-01-06 05:10:00,
2013-01-06 00:15:00,41.7,27.6,29.09,NW,316,0.0,3.1,57,0.00,,---,0.00,VWS V13.01,2013-01-06 05:15:00,
2013-01-06 00:20:00,41.5,27.9,29.09,NW,316,0.0,0.0,58,0.00,,---,0.00,VWS V13.01,2013-01-06 05:20:00,
2013-01-06 00:25:00,41.5,27.9,29.09,West,260,0.0,0.0,58,0.00,,---,0.00,VWS V13.01,2013-01-06 05:25:00,
2013-01-06 00:30:00,41.5,27.5,29.09,WSW,257,0.0,0.0,57,0.00,,---,0.00,VWS V13.01,2013-01-06 05:30:00,
2013-01-06 00:35:00,41.7,27.6,29.09,WSW,254,0.0,0.0,57,0.00,,---,0.00,VWS V13.01,2013-01-06 05:35:00,
2013-01-06 00:40:00,41.5,27.5,29.09,WSW,254,0.0,0.0,57,0.00,,---,0.00,VWS V13.01,2013-01-06 05:40:00,
2013-01-06 00:45:00,41.5,27.5,29.09,WSW,254,0.0,0.0,57,0.00,,---,0.00,VWS V13.01,2013-01-06 05:45:00,
2013-01-06 00:50:00,41.5,27.0,29.09,WSW,254,0.0,0.0,56,0.00,,---,0.00,VWS V13.01,2013-01-06 05:50:00,
2013-01-06 00:55:00,41.4,27.7,29.09,WSW,254,0.0,0.0,58,0.00,,---,0.00,VWS V13.01,2013-01-06 05:55:00,
2013-01-06 01:00:00,41.2,28.4,29.09,WSW,254,0.0,0.0,60,0.00,,---,0.00,VWS V13.01,2013-01-06 06:00:00,
2013-01-06 01:05:00,41.2,28.8,29.09,WSW,258,0.0,0.0,61,0.00,,---,0.00,VWS V13.01,2013-01-06 06:05:00,
2013-01-06 01:10:00,41.0,29.0,29.09,WSW,258,0.0,0.0,62,0.00,,---,0.00,VWS V13.01,2013-01-06 06:10:00,
2013-01-06 01:15:00,41.0,30.5,29.09,NNW,334,0.0,0.0,66,0.00,,---,0.00,VWS V13.01,2013-01-06 06:15:00,
2013-01-06 01:20:00,40.8,31.1,29.09,SSW,193,0.0,0.0,68,0.00,,---,0.00,VWS V13.01,2013-01-06 06:20:00,
2013-01-06 01:25:00,40.8,31.5,29.09,NNW,343,0.0,0.0,69,0.00,,---,0.00,VWS V13.01,2013-01-06 06:25:00,
2013-01-06 01:30:00,40.6,30.9,29.09,NNW,340,0.0,0.0,68,0.00,,---,0.00,VWS V13.01,2013-01-06 06:30:00,
2013-01-06 01:35:00,40.8,30.7,29.09,SE,136,0.0,2.7,67,0.00,,---,0.00,VWS V13.01,2013-01-06 06:35:00,
2013-01-06 01:40:00,40.8,30.0,29.09,SE,136,0.0,0.0,65,0.00,,---,0.00,VWS V13.01,2013-01-06 06:40:00,
2013-01-06 01:46:00,41.0,29.0,29.09,SE,137,0.0,0.0,62,0.00,,---,0.00,VWS V13.01,2013-01-06 06:46:00,
2013-01-06 01:51:00,41.2,28.8,29.09,SE,136,0.0,0.0,61,0.00,,---,0.00,VWS V13.01,2013-01-06 06:51:00,
2013-01-06 01:56:00,41.2,28.4,29.09,SE,137,0.0,0.0,60,0.00,,---,0.00,VWS V13.01,2013-01-06 06:56:00,
2013-01-06 02:01:00,41.2,28.8,29.09,SE,137,0.0,0.0,61,0.00,,---,0.00,VWS V13.01,2013-01-06 07:01:00,
2013-01-06 02:06:00,41.0,29.0,29.09,SE,137,0.0,0.0,62,0.00,,---,0.00,VWS V13.01,2013-01-06 07:06:00,
2013-01-06 02:11:00,40.8,29.2,29.09,SE,137,0.0,0.0,63,0.00,,---,0.00,VWS V13.01,2013-01-06 07:11:00,
2013-01-06 02:16:00,40.6,29.4,29.09,SE,136,0.0,0.0,64,0.00,,---,0.00,VWS V13.01,2013-01-06 07:16:00,
2013-01-06 02:21:00,40.6,29.8,29.09,SE,136,0.0,0.0,65,0.00,,---,0.00,VWS V13.01,2013-01-06 07:21:00,
2013-01-06 02:26:00,40.6,30.2,29.09,SE,137,0.0,0.0,66,0.00,,---,0.00,VWS V13.01,2013-01-06 07:26:00,
2013-01-06 02:31:00,40.5,30.4,29.09,SE,136,0.0,0.0,67,0.00,,---,0.00,VWS V13.01,2013-01-06 07:31:00,
2013-01-06 02:36:00,40.5,30.8,29.09,SE,137,0.0,0.0,68,0.00,,---,0.00,VWS V13.01,2013-01-06 07:36:00,
2013-01-06 02:41:00,40.5,31.5,29.09,SE,137,0.0,0.0,70,0.00,,---,0.00,VWS V13.01,2013-01-06 07:41:00,
2013-01-06 02:46:00,40.3,31.3,29.09,SE,136,0.0,0.0,70,0.00,,---,0.00,VWS V13.01,2013-01-06 07:46:00,
2013-01-06 02:51:00,40.1,31.5,29.09,SE,136,0.0,0.0,71,0.00,,---,0.00,VWS V13.01,2013-01-06 07:51:00,
2013-01-06 02:56:00,40.1,32.2,29.09,WNW,286,0.0,2.2,73,0.00,,---,0.00,VWS V13.01,2013-01-06 07:56:00,
2013-01-06 03:01:00,39.9,32.3,29.09,WSW,245,0.0,0.0,74,0.00,,---,0.00,VWS V13.01,2013-01-06 08:01:00,
2013-01-06 03:06:00,39.9,32.3,29.09,WSW,245,0.0,0.0,74,0.00,,---,0.00,VWS V13.01,2013-01-06 08:06:00,
2013-01-06 03:11:00,39.9,32.3,29.09,SW,227,0.0,0.0,74,0.00,,---,0.00,VWS V13.01,2013-01-06 08:11:00,
2013-01-06 03:17:00,39.9,32.3,29.09,WNW,288,0.0,0.0,74,0.00,,---,0.00,VWS V13.01,2013-01-06 08:17:00,
2013-01-06 03:22:00,39.7,31.8,29.09,NNW,336,0.0,0.0,73,0.00,,---,0.00,VWS V13.01,2013-01-06 08:22:00,
2013-01-06 03:27:00,39.7,31.8,29.09,NNW,336,0.0,0.0,73,0.00,,---,0.00,VWS V13.01,2013-01-06 08:27:00,
2013-01-06 03:32:00,39.7,32.1,29.09,NNW,336,0.0,0.0,74,0.00,,---,0.00,VWS V13.01,2013-01-06 08:32:00,
2013-01-06 03:37:00,39.6,32.0,29.09,NNW,336,0.0,0.0,74,0.00,,---,0.00,VWS V13.01,2013-01-06 08:37:00,
2013-01-06 03:42:00,39.6,32.3,29.09,NNW,332,0.0,0.0,75,0.00,,---,0.00,VWS V13.01,2013-01-06 08:42:00,
2013-01-06 03:47:00,39.6,32.3,29.09,NNW,332,0.0,0.0,75,0.00,,---,0.00,VWS V13.01,2013-01-06 08:47:00,
2013-01-06 03:52:00,39.6,32.3,29.09,NNE,12,0.0,0.0,75,0.00,,---,0.00,VWS V13.01,2013-01-06 08:52:00,
2013-01-06 03:57:00,39.7,32.8,29.09,NNE,12,0.0,0.0,76,0.00,,---,0.00,VWS V13.01,2013-01-06 08:57:00,
2013-01-06 04:02:00,39.7,32.8,29.09,NNE,12,0.0,0.0,76,0.00,,---,0.00,VWS V13.01,2013-01-06 09:02:00,
2013-01-06 04:07:00,39.7,32.8,29.09,NNW,340,0.0,0.0,76,0.00,,---,0.00,VWS V13.01,2013-01-06 09:07:00,
2013-01-06 04:12:00,39.6,32.6,29.09,NNW,340,0.0,0.0,76,0.00,,---,0.00,VWS V13.01,2013-01-06 09:12:00,
2013-01-06 04:17:00,39.6,32.6,29.09,NNW,340,0.0,0.0,76,0.00,,---,0.00,VWS V13.01,2013-01-06 09:17:00,
2013-01-06 04:22:00,39.6,33.0,29.09,NNW,340,0.0,0.0,77,0.00,,---,0.00,VWS V13.01,2013-01-06 09:22:00,
2013-01-06 04:27:00,39.6,33.0,29.09,NW,310,0.0,0.0,77,0.00,,---,0.00,VWS V13.01,2013-01-06 09:27:00,
2013-01-06 04:32:00,39.6,33.0,29.09,NW,310,0.0,0.0,77,0.00,,---,0.00,VWS V13.01,2013-01-06 09:32:00,
2013-01-06 04:37:00,39.4,32.8,29.09,NW,310,0.0,0.0,77,0.00,,---,0.00,VWS V13.01,2013-01-06 09:37:00,
2013-01-06 04:42:00,39.4,33.1,29.09,NW,310,0.0,0.0,78,0.00,,---,0.00,VWS V13.01,2013-01-06 09:42:00,
2013-01-06 04:47:00,39.2,32.9,29.09,NW,310,0.0,0.0,78,0.00,,---,0.00,VWS V13.01,2013-01-06 09:47:00,
2013-01-06 04:52:00,39.2,32.9,29.09,NNE,13,0.0,0.0,78,0.00,,---,0.00,VWS V13.01,2013-01-06 09:52:00,
2013-01-06 04:57:00,39.2,32.9,29.09,NNE,13,0.0,0.0,78,0.00,,---,0.00,VWS V13.01,2013-01-06 09:57:00,
2013-01-06 05:03:00,39.2,32.9,29.09,NNE,13,0.0,0.0,78,0.00,,---,0.00,VWS V13.01,2013-01-06 10:03:00,
2013-01-06 05:08:00,39.2,32.9,29.09,NNE,13,0.0,0.0,78,0.00,,---,0.00,VWS V13.01,2013-01-06 10:08:00,
2013-01-06 05:13:00,39.4,33.1,29.09,NE,35,0.0,0.0,78,0.00,,---,0.00,VWS V13.01,2013-01-06 10:13:00,
2013-01-06 05:18:00,39.4,33.1,29.09,NW,317,0.0,0.0,78,0.00,,---,0.00,VWS V13.01,2013-01-06 10:18:00,
2013-01-06 05:23:00,39.4,33.4,29.09,NW,317,0.0,0.0,79,0.00,,---,0.00,VWS V13.01,2013-01-06 10:23:00,
2013-01-06 05:28:00,39.4,33.1,29.09,NW,317,0.0,0.0,78,0.00,,---,0.00,VWS V13.01,2013-01-06 10:28:00,
2013-01-06 05:33:00,39.2,32.9,29.09,NW,317,0.0,0.0,78,0.00,,---,0.00,VWS V13.01,2013-01-06 10:33:00,
2013-01-06 05:38:00,39.2,33.2,29.09,NW,324,0.0,0.0,79,0.00,,---,0.00,VWS V13.01,2013-01-06 10:38:00,
2013-01-06 05:43:00,39.2,33.2,29.09,NW,324,0.0,0.0,79,0.00,,---,0.00,VWS V13.01,2013-01-06 10:43:00,
2013-01-06 05:48:00,39.2,33.2,29.09,NW,324,0.0,0.0,79,0.00,,---,0.00,VWS V13.01,2013-01-06 10:48:00,
2013-01-06 05:53:00,39.0,33.1,29.09,NW,325,0.0,0.0,79,0.00,,---,0.00,VWS V13.01,2013-01-06 10:53:00,
2013-01-06 05:58:00,39.0,33.1,29.09,North,357,0.0,0.0,79,0.00,,---,0.00,VWS V13.01,2013-01-06 10:58:00,
2013-01-06 06:03:00,39.0,33.1,29.09,North,357,0.0,0.0,79,0.00,,---,0.00,VWS V13.01,2013-01-06 11:03:00,
2013-01-06 06:08:00,39.0,33.1,29.09,North,357,0.0,0.0,79,0.00,,---,0.00,VWS V13.01,2013-01-06 11:08:00,
2013-01-06 06:13:00,39.0,33.1,29.09,North,357,0.0,0.0,79,0.00,,---,0.00,VWS V13.01,2013-01-06 11:13:00,
2013-01-06 06:18:00,39.0,33.1,29.09,North,357,0.0,0.0,79,0.00,,---,0.00,VWS V13.01,2013-01-06 11:18:00,
2013-01-06 06:23:00,39.0,33.1,29.09,North,357,0.0,0.0,79,0.00,,---,0.00,VWS V13.01,2013-01-06 11:23:00,
2013-01-06 06:28:00,39.0,33.1,29.09,North,357,0.0,0.0,79,0.00,,---,0.00,VWS V13.01,2013-01-06 11:28:00,
2013-01-06 06:33:00,39.0,33.1,29.09,North,357,0.0,0.0,79,0.00,,---,0.00,VWS V13.01,2013-01-06 11:33:00,
2013-01-06 06:38:00,38.8,32.6,29.09,North,357,0.0,0.0,78,0.00,,---,0.00,VWS V13.01,2013-01-06 11:38:00,
2013-01-06 06:43:00,38.8,32.6,29.09,North,357,0.0,0.0,78,0.00,,---,0.00,VWS V13.01,2013-01-06 11:43:00,
2013-01-06 06:48:00,38.7,32.4,29.09,North,357,0.0,0.0,78,0.00,,---,0.00,VWS V13.01,2013-01-06 11:48:00,
2013-01-06 06:53:00,38.5,32.5,29.09,North,357,0.0,0.0,79,0.00,,---,0.00,VWS V13.01,2013-01-06 11:53:00,
2013-01-06 06:58:00,38.5,32.5,29.09,North,357,0.0,0.0,79,0.00,,---,0.00,VWS V13.01,2013-01-06 11:58:00,
2013-01-06 07:04:00,38.3,32.4,29.09,North,357,0.0,0.0,79,0.00,,---,0.00,VWS V13.01,2013-01-06 12:04:00,
2013-01-06 07:09:00,38.3,32.4,29.09,North,357,0.0,0.0,79,0.00,,---,0.00,VWS V13.01,2013-01-06 12:09:00,
2013-01-06 07:14:00,38.1,32.2,29.09,North,357,0.0,0.0,79,0.00,,---,0.00,VWS V13.01,2013-01-06 12:14:00,
2013-01-06 07:19:00,38.1,32.2,29.09,North,357,0.0,0.0,79,0.00,,---,0.00,VWS V13.01,2013-01-06 12:19:00,
2013-01-06 07:24:00,37.9,32.0,29.09,North,357,0.0,0.0,79,0.00,,---,0.00,VWS V13.01,2013-01-06 12:24:00,
2013-01-06 07:29:00,37.9,32.0,29.09,North,357,0.0,0.0,79,0.00,,---,0.00,VWS V13.01,2013-01-06 12:29:00,
2013-01-06 07:34:00,37.9,32.0,29.09,North,357,0.0,0.0,79,0.00,,---,0.00,VWS V13.01,2013-01-06 12:34:00,
2013-01-06 07:39:00,37.8,31.8,29.09,North,357,0.0,0.0,79,0.00,,---,0.00,VWS V13.01,2013-01-06 12:39:00,
2013-01-06 07:44:00,37.6,31.7,29.09,North,357,0.0,0.0,79,0.00,,---,0.00,VWS V13.01,2013-01-06 12:44:00,
2013-01-06 07:49:00,37.8,31.8,29.09,North,357,0.0,0.0,79,0.00,,---,0.00,VWS V13.01,2013-01-06 12:49:00,
2013-01-06 07:54:00,37.9,32.3,29.09,North,357,0.0,0.0,80,0.00,,---,0.00,VWS V13.01,2013-01-06 12:54:00,
2013-01-06 07:59:00,37.9,32.3,29.09,North,357,0.0,0.0,80,0.00,,---,0.00,VWS V13.01,2013-01-06 12:59:00,
2013-01-06 08:04:00,38.1,32.8,29.09,North,357,0.0,0.0,81,0.00,,---,0.00,VWS V13.01,2013-01-06 13:04:00,
2013-01-06 08:09:00,38.1,32.8,29.09,North,357,0.0,0.0,81,0.00,,---,0.00,VWS V13.01,2013-01-06 13:09:00,
2013-01-06 08:14:00,38.3,33.0,29.09,North,357,0.0,0.0,81,0.00,,---,0.00,VWS V13.01,2013-01-06 13:14:00,
2013-01-06 08:19:00,38.5,33.2,29.09,North,357,0.0,0.0,81,0.00,,---,0.00,VWS V13.01,2013-01-06 13:19:00,
2013-01-06 08:24:00,38.5,33.2,29.09,North,357,0.0,0.0,81,0.00,,---,0.00,VWS V13.01,2013-01-06 13:24:00,
2013-01-06 08:29:00,38.7,33.3,29.09,North,357,0.0,0.0,81,0.00,,---,0.00,VWS V13.01,2013-01-06 13:29:00,
2013-01-06 08:34:00,38.7,33.3,29.09,North,357,0.0,0.0,81,0.00,,---,0.00,VWS V13.01,2013-01-06 13:34:00,
2013-01-06 08:39:00,38.8,33.8,29.09,North,357,0.0,0.0,82,0.00,,---,0.00,VWS V13.01,2013-01-06 13:39:00,
2013-01-06 08:44:00,39.2,34.2,29.09,North,357,0.0,0.0,82,0.00,,---,0.00,VWS V13.01,2013-01-06 13:44:00,
2013-01-06 08:49:00,39.6,34.5,29.09,North,357,0.0,0.0,82,0.00,,---,0.00,VWS V13.01,2013-01-06 13:49:00,
2013-01-06 08:54:00,39.7,34.7,29.09,North,357,0.0,0.0,82,0.00,,---,0.00,VWS V13.01,2013-01-06 13:54:00,
2013-01-06 08:59:00,39.9,34.9,29.09,North,357,0.0,0.0,82,0.00,,---,0.00,VWS V13.01,2013-01-06 13:59:00,
2013-01-06 09:04:00,40.1,35.1,29.09,North,357,0.0,0.0,82,0.00,,---,0.00,VWS V13.01,2013-01-06 14:04:00,
2013-01-06 09:09:00,40.3,34.9,29.09,North,357,0.0,0.0,81,0.00,,---,0.00,VWS V13.01,2013-01-06 14:09:00,
2013-01-06 09:14:00,40.5,34.8,29.09,North,357,0.0,0.0,80,0.00,,---,0.00,VWS V13.01,2013-01-06 14:14:00,
2013-01-06 09:19:00,40.6,34.7,29.09,North,357,0.0,0.0,79,0.00,,---,0.00,VWS V13.01,2013-01-06 14:19:00,
2013-01-06 09:24:00,41.0,34.7,29.09,SW,214,3.1,3.1,78,0.00,,---,0.00,VWS V13.01,2013-01-06 14:24:00,
2013-01-06 09:29:00,41.0,34.3,29.09,SW,225,0.0,3.6,77,0.00,,---,0.00,VWS V13.01,2013-01-06 14:29:00,
2013-01-06 09:35:00,41.2,34.2,29.09,SW,214,0.0,3.6,76,0.00,,---,0.00,VWS V13.01,2013-01-06 14:35:00,
2013-01-06 09:40:00,41.2,33.9,29.09,SE,139,0.0,3.6,75,0.00,,---,0.00,VWS V13.01,2013-01-06 14:40:00,
2013-01-06 09:45:00,41.4,33.7,29.09,SE,139,0.0,0.0,74,0.00,,---,0.00,VWS V13.01,2013-01-06 14:45:00,
2013-01-06 09:50:00,41.9,34.2,29.09,SW,215,0.0,0.0,74,0.00,,---,0.00,VWS V13.01,2013-01-06 14:50:00,
2013-01-06 09:55:00,42.1,34.4,29.09,SW,235,0.0,0.0,74,0.00,,---,0.00,VWS V13.01,2013-01-06 14:55:00,
2013-01-06 10:00:00,42.4,34.4,29.09,SSE,153,0.0,3.1,73,0.00,,---,0.00,VWS V13.01,2013-01-06 15:00:00,
2013-01-06 10:05:00,43.0,34.6,29.09,SSW,199,0.0,2.7,72,0.00,,---,0.00,VWS V13.01,2013-01-06 15:05:00,
2013-01-06 10:10:00,43.5,35.1,29.09,SSW,200,3.1,3.6,72,0.00,,---,0.00,VWS V13.01,2013-01-06 15:10:00,
2013-01-06 10:15:00,43.7,34.6,29.09,SSW,197,0.0,4.9,70,0.00,,---,0.00,VWS V13.01,2013-01-06 15:15:00,
2013-01-06 10:20:00,44.2,34.7,29.09,South,172,0.0,0.0,69,0.00,,---,0.00,VWS V13.01,2013-01-06 15:20:00,
2013-01-06 10:25:00,44.6,34.7,29.09,WSW,239,0.0,0.0,68,0.00,,---,0.00,VWS V13.01,2013-01-06 15:25:00,
2013-01-06 10:30:00,45.3,35.0,29.09,NW,309,0.0,3.1,67,0.00,,---,0.00,VWS V13.01,2013-01-06 15:30:00,
2013-01-06 10:35:00,45.9,35.2,29.09,NNW,332,3.6,3.6,66,0.00,,---,0.00,VWS V13.01,2013-01-06 15:35:00,
2013-01-06 10:40:00,46.4,34.5,29.09,WNW,287,0.0,0.0,63,0.00,,---,0.00,VWS V13.01,2013-01-06 15:40:00,
2013-01-06 10:45:00,46.8,34.8,29.09,West,280,0.0,2.7,63,0.00,,---,0.00,VWS V13.01,2013-01-06 15:45:00,
2013-01-06 10:50:00,47.1,34.4,29.09,SW,223,0.0,3.1,61,0.00,,---,0.00,VWS V13.01,2013-01-06 15:50:00,
2013-01-06 10:56:00,47.3,34.1,29.09,NW,326,0.0,3.1,60,0.00,,---,0.00,VWS V13.01,2013-01-06 15:56:00,
2013-01-06 11:01:00,47.3,33.3,29.09,NW,318,0.0,0.0,58,0.00,,---,0.00,VWS V13.01,2013-01-06 16:01:00,
2013-01-06 11:06:00,47.5,32.1,29.09,NNW,342,0.0,0.0,55,0.00,,---,0.00,VWS V13.01,2013-01-06 16:06:00,
2013-01-06 11:11:00,48.0,32.6,29.09,WSW,251,0.0,0.0,55,0.00,,---,0.00,VWS V13.01,2013-01-06 16:11:00,
2013-01-06 11:16:00,48.4,32.0,29.09,WNW,294,0.0,0.0,53,0.00,,---,0.00,VWS V13.01,2013-01-06 16:16:00,
2013-01-06 11:21:00,48.6,31.8,29.09,ENE,61,0.0,0.0,52,0.00,,---,0.00,VWS V13.01,2013-01-06 16:21:00,
2013-01-06 11:26:00,48.7,31.9,29.09,NW,325,0.0,4.0,52,0.00,,---,0.00,VWS V13.01,2013-01-06 16:26:00,
2013-01-06 11:31:00,48.9,31.1,29.09,NNW,332,0.0,4.0,50,0.00,,---,0.00,VWS V13.01,2013-01-06 16:31:00,
2013-01-06 11:36:00,49.1,31.3,29.09,NW,315,2.7,4.0,50,0.00,,---,0.00,VWS V13.01,2013-01-06 16:36:00,
2013-01-06 11:41:00,49.1,30.8,29.09,NNE,17,0.0,0.0,49,0.00,,---,0.00,VWS V13.01,2013-01-06 16:41:00,
2013-01-06 11:46:00,49.1,30.8,29.09,WNW,303,0.0,3.1,49,0.00,,---,0.00,VWS V13.01,2013-01-06 16:46:00,
2013-01-06 11:51:00,49.3,31.0,29.09,West,266,0.0,3.1,49,0.00,,---,0.00,VWS V13.01,2013-01-06 16:51:00,
2013-01-06 11:56:00,49.6,30.8,29.09,WNW,294,0.0,3.1,48,0.00,,---,0.00,VWS V13.01,2013-01-06 16:56:00,
2013-01-06 12:01:00,50.0,31.1,29.09,WSW,249,0.0,0.0,48,0.00,,---,0.00,VWS V13.01,2013-01-06 17:01:00,
2013-01-06 12:06:00,50.2,31.3,29.09,South,175,0.0,4.0,48,0.00,,---,0.00,VWS V13.01,2013-01-06 17:06:00,
2013-01-06 12:11:00,50.4,31.4,29.09,SW,225,0.0,4.0,48,0.00,,---,0.00,VWS V13.01,2013-01-06 17:11:00,
2013-01-06 12:16:00,50.5,31.1,29.09,North,357,0.0,4.0,47,0.00,,---,0.00,VWS V13.01,2013-01-06 17:16:00,
2013-01-06 12:21:00,50.7,30.7,29.09,NE,41,0.0,0.0,46,0.00,,---,0.00,VWS V13.01,2013-01-06 17:21:00,
2013-01-06 12:26:00,51.1,30.5,29.09,SSW,198,0.0,0.0,45,0.00,,---,0.00,VWS V13.01,2013-01-06 17:26:00,
2013-01-06 12:31:00,51.3,30.7,29.09,SW,230,3.6,5.8,45,0.00,,---,0.00,VWS V13.01,2013-01-06 17:31:00,
2013-01-06 12:36:00,51.4,30.8,29.09,SSW,202,0.0,5.8,45,0.00,,---,0.00,VWS V13.01,2013-01-06 17:36:00,
2013-01-06 12:41:00,51.8,31.1,29.09,NNW,327,0.0,3.1,45,0.00,,---,0.00,VWS V13.01,2013-01-06 17:41:00,
2013-01-06 12:46:00,52.5,31.2,29.09,SE,129,2.2,4.9,44,0.00,,---,0.00,VWS V13.01,2013-01-06 17:46:00,
2013-01-06 12:51:00,52.7,30.3,29.09,South,187,4.9,5.4,42,0.00,,---,0.00,VWS V13.01,2013-01-06 17:51:00,
2013-01-06 12:56:00,53.1,31.2,29.09,ESE,105,2.7,6.3,43,0.00,,---,0.00,VWS V13.01,2013-01-06 17:56:00,
2013-01-06 13:01:00,54.1,31.0,29.09,SE,129,2.2,3.6,41,0.00,,---,0.00,VWS V13.01,2013-01-06 18:01:00,
2013-01-06 13:06:00,54.1,30.4,29.09,WNW,288,3.1,5.8,40,0.00,,---,0.00,VWS V13.01,2013-01-06 18:06:00,
2013-01-06 13:12:00,54.5,30.7,29.09,NW,314,0.0,5.8,40,0.00,,---,0.00,VWS V13.01,2013-01-06 18:12:00,
2013-01-06 13:17:00,54.1,30.4,29.09,SE,141,0.0,5.8,40,0.00,,---,0.00,VWS V13.01,2013-01-06 18:17:00,
2013-01-06 13:22:00,54.3,30.5,29.09,SE,128,0.0,3.6,40,0.00,,---,0.00,VWS V13.01,2013-01-06 18:22:00,
2013-01-06 13:27:00,54.5,30.7,29.09,WSW,240,0.0,4.0,40,0.00,,---,0.00,VWS V13.01,2013-01-06 18:27:00,
2013-01-06 13:32:00,54.9,31.0,29.09,SW,234,0.0,4.0,40,0.00,,---,0.00,VWS V13.01,2013-01-06 18:32:00,
2013-01-06 13:37:00,55.2,31.3,29.09,NNW,335,0.0,4.0,40,0.00,,---,0.00,VWS V13.01,2013-01-06 18:37:00,
2013-01-06 13:42:00,55.2,30.7,29.09,ENE,77,0.0,0.0,39,0.00,,---,0.00,VWS V13.01,2013-01-06 18:42:00,
2013-01-06 13:47:00,55.2,30.7,29.09,NNE,21,0.0,3.6,39,0.00,,---,0.00,VWS V13.01,2013-01-06 18:47:00,
2013-01-06 13:52:00,54.9,29.8,29.09,South,191,2.2,5.4,38,0.00,,---,0.00,VWS V13.01,2013-01-06 18:52:00,
2013-01-06 13:57:00,55.2,30.7,29.09,ENE,73,0.0,5.8,39,0.00,,---,0.00,VWS V13.01,2013-01-06 18:57:00,
2013-01-06 14:02:00,55.8,30.6,29.09,North,357,0.0,3.6,38,0.00,,---,0.00,VWS V13.01,2013-01-06 19:02:00,
2013-01-06 14:07:00,56.3,31.0,29.09,SW,216,4.0,4.0,38,0.00,,---,0.00,VWS V13.01,2013-01-06 19:07:00,
2013-01-06 14:13:00,56.1,29.5,29.09,SSE,155,3.6,5.8,36,0.00,,---,0.00,VWS V13.01,2013-01-06 19:13:00,
2013-01-06 14:18:00,55.9,30.1,29.09,SSE,168,2.7,9.6,37,0.00,,---,0.00,VWS V13.01,2013-01-06 19:18:00,
2013-01-06 14:23:00,55.6,29.7,29.09,SSE,167,3.1,7.6,37,0.00,,---,0.00,VWS V13.01,2013-01-06 19:23:00,
2013-01-06 14:28:00,55.4,29.6,29.09,WNW,289,2.7,7.6,37,0.00,,---,0.00,VWS V13.01,2013-01-06 19:28:00,
2013-01-06 14:33:00,55.8,29.9,29.09,NNW,328,0.0,7.6,37,0.00,,---,0.00,VWS V13.01,2013-01-06 19:33:00,
2013-01-06 14:38:00,55.9,30.1,29.09,South,187,3.1,8.7,37,0.00,,---,0.00,VWS V13.01,2013-01-06 19:38:00,
2013-01-06 14:48:00,55.9,30.1,29.09,South,191,4.0,7.6,37,0.00,,---,0.00,VWS V13.01,2013-01-06 19:48:00,
2013-01-06 14:53:00,55.8,29.9,29.09,SW,220,4.0,7.6,37,0.00,,---,0.00,VWS V13.01,2013-01-06 19:53:00,
2013-01-06 14:58:00,55.4,29.6,29.09,SSW,202,0.0,7.6,37,0.00,,---,0.00,VWS V13.01,2013-01-06 19:58:00,
2013-01-06 15:04:00,55.6,29.7,29.09,West,277,0.0,3.6,37,0.00,,---,0.00,VWS V13.01,2013-01-06 20:04:00,
2013-01-06 15:09:00,55.6,29.7,29.09,SW,234,2.7,5.8,37,0.00,,---,0.00,VWS V13.01,2013-01-06 20:09:00,
2013-01-06 15:11:00,55.8,30.6,29.09,SW,224,2.7,5.8,38,0.00,,---,0.00,VWS V13.01,2013-01-06 20:11:00,
2013-01-06 15:13:00,55.8,30.6,29.09,SW,215,4.0,5.8,38,0.00,,---,0.00,VWS V13.01,2013-01-06 20:13:00,
2013-01-06 15:18:00,55.6,29.7,29.09,ESE,108,4.5,5.8,37,0.00,,---,0.00,VWS V13.01,2013-01-06 20:18:00,
2013-01-06 15:23:00,55.4,30.2,29.09,WSW,252,2.7,8.1,38,0.00,,---,0.00,VWS V13.01,2013-01-06 20:23:00,